• In Hungary
  • List of Countries
  • For 7 days
  • Water Temperature
  • Satellite Maps
  • Weather Map
  • News
  • Weather Widgets
  • user-avatar
    Login

    Hourly Weather Sloboda

    Today, 23 October, Tuesday

    Time Temperature Precipitation Wind Pressure Humidity
    00:00 +4°C° 0 mm 2 mps 750 mmHg 80%
    01:00 +4°C° 0 mm 2 mps 749 mmHg 81%
    02:00 +3°C° 0 mm 3 mps 749 mmHg 83%
    03:00 +3°C° 0.1 mm 3 mps 749 mmHg 83%
    04:00 +3°C° 0.1 mm 3 mps 748 mmHg 83%
    05:00 +4°C° 0.1 mm 3 mps 748 mmHg 83%
    06:00 +4°C° 0 mm 4 mps 747 mmHg 84%
    07:00 +4°C° 0 mm 4 mps 747 mmHg 84%
    08:00 +5°C° 0 mm 4 mps 747 mmHg 85%
    09:00 +5°C° 0 mm 4 mps 746 mmHg 80%
    10:00 +6°C° 0 mm 4 mps 746 mmHg 75%
    11:00 +7°C° 0 mm 4 mps 745 mmHg 70%
    12:00 +7°C° 0 mm 4 mps 744 mmHg 67%
    13:00 +8°C° 0 mm 5 mps 743 mmHg 63%
    14:00 +8°C° 0 mm 5 mps 742 mmHg 59%
    15:00 +7°C° 0.1 mm 5 mps 741 mmHg 61%
    16:00 +7°C° 0.1 mm 5 mps 740 mmHg 63%
    17:00 +6°C° 0.1 mm 5 mps 740 mmHg 65%
    18:00 +6°C° 0.4 mm 5 mps 738 mmHg 68%
    19:00 +5°C° 0.4 mm 6 mps 737 mmHg 70%
    20:00 +4°C° 0.4 mm 6 mps 736 mmHg 73%
    21:00 +5°C° 0.3 mm 6 mps 735 mmHg 75%
    22:00 +5°C° 0.3 mm 6 mps 733 mmHg 78%
    23:00 +5°C° 0.3 mm 6 mps 732 mmHg 80%

    Tomorrow, 24 October, Wednesday

    Time Temperature Precipitation Wind Pressure Humidity
    00:00 +5°C° 0.4 mm 6 mps 731 mmHg 81%
    01:00 +5°C° 0.4 mm 6 mps 730 mmHg 82%
    02:00 +5°C° 0.4 mm 6 mps 728 mmHg 83%
    03:00 +6°C° 0.2 mm 5 mps 727 mmHg 84%
    04:00 +6°C° 0.2 mm 5 mps 726 mmHg 85%
    05:00 +6°C° 0.2 mm 5 mps 725 mmHg 86%
    06:00 +6°C° 0.5 mm 5 mps 725 mmHg 86%
    07:00 +5°C° 0.5 mm 5 mps 725 mmHg 85%
    08:00 +5°C° 0.5 mm 5 mps 725 mmHg 85%
    09:00 +4°C° 0.5 mm 6 mps 725 mmHg 81%
    10:00 +5°C° 0.5 mm 6 mps 725 mmHg 78%
    11:00 +5°C° 0.5 mm 6 mps 726 mmHg 74%
    12:00 +5°C° 0.1 mm 6 mps 726 mmHg 71%
    13:00 +5°C° 0.1 mm 6 mps 726 mmHg 68%
    14:00 +5°C° 0.1 mm 7 mps 726 mmHg 65%
    15:00 +5°C° 0.1 mm 6 mps 727 mmHg 67%
    16:00 +4°C° 0.1 mm 6 mps 727 mmHg 69%
    17:00 +3°C° 0.1 mm 5 mps 727 mmHg 71%
    18:00 +3°C° 0.2 mm 5 mps 727 mmHg 74%
    19:00 +4°C° 0.2 mm 4 mps 727 mmHg 78%
    20:00 +4°C° 0.2 mm 3 mps 727 mmHg 82%
    21:00 +4°C° 0.1 mm 4 mps 727 mmHg 83%
    22:00 +4°C° 0.1 mm 4 mps 728 mmHg 85%
    23:00 +4°C° 0.1 mm 4 mps 728 mmHg 86%

    Day after tomorrow, 25 October, Thursday

    Time Temperature Precipitation Wind Pressure Humidity
    00:00 +3°C° 0.2 mm 5 mps 729 mmHg 86%
    01:00 +3°C° 0.2 mm 5 mps 730 mmHg 85%
    02:00 +3°C° 0.2 mm 5 mps 731 mmHg 84%
    03:00 +3°C° 0.4 mm 6 mps 731 mmHg 83%
    04:00 +3°C° 0.4 mm 6 mps 732 mmHg 81%
    05:00 +3°C° 0.4 mm 7 mps 732 mmHg 80%
    06:00 +3°C° 0.2 mm 7 mps 733 mmHg 78%
    07:00 +3°C° 0.2 mm 7 mps 734 mmHg 76%
    08:00 +2°C° 0.2 mm 7 mps 735 mmHg 75%
    09:00 +3°C° 0 mm 7 mps 735 mmHg 73%
    10:00 +3°C° 0 mm 7 mps 735 mmHg 72%
    11:00 +3°C° 0 mm 6 mps 736 mmHg 71%
    12:00 +3°C° 0 mm 6 mps 736 mmHg 69%
    13:00 +4°C° 0 mm 6 mps 736 mmHg 67%
    14:00 +4°C° 0 mm 6 mps 736 mmHg 66%
    15:00 +5°C° 0.1 mm 5 mps 736 mmHg 69%
    16:00 +4°C° 0.1 mm 4 mps 736 mmHg 72%
    17:00 +4°C° 0.1 mm 3 mps 736 mmHg 75%
    18:00 +4°C° 0.2 mm 3 mps 735 mmHg 77%
    19:00 +3°C° 0.2 mm 3 mps 735 mmHg 79%
    20:00 +4°C° 0.2 mm 2 mps 734 mmHg 81%
    21:00 +4°C° 0.5 mm 2 mps 734 mmHg 83%
    22:00 +4°C° 0.5 mm 2 mps 734 mmHg 85%
    23:00 +4°C° 0.5 mm 2 mps 734 mmHg 87%

    26 October, Friday

    Time Temperature Precipitation Wind Pressure Humidity
    00:00 +4°C° 0.2 mm 2 mps 734 mmHg 87%
    01:00 +4°C° 0.2 mm 2 mps 735 mmHg 88%
    02:00 +4°C° 0.2 mm 2 mps 735 mmHg 89%
    03:00 +4°C° 0 mm 2 mps 736 mmHg 89%
    04:00 +3°C° 0 mm 2 mps 736 mmHg 89%
    05:00 +2°C° 0 mm 3 mps 737 mmHg 89%
    06:00 +2°C° 0 mm 3 mps 738 mmHg 90%
    07:00 +2°C° 0 mm 3 mps 738 mmHg 90%
    08:00 +2°C° 0 mm 3 mps 739 mmHg 90%
    09:00 +3°C° 0 mm 3 mps 739 mmHg 87%
    10:00 +4°C° 0 mm 4 mps 740 mmHg 84%
    11:00 +5°C° 0 mm 5 mps 740 mmHg 81%
    12:00 +6°C° 0.1 mm 5 mps 740 mmHg 80%
    13:00 +6°C° 0.1 mm 5 mps 740 mmHg 79%
    14:00 +6°C° 0.1 mm 5 mps 740 mmHg 78%
    15:00 +6°C° 0 mm 4 mps 741 mmHg 79%
    16:00 +5°C° 0 mm 4 mps 741 mmHg 79%
    17:00 +5°C° 0 mm 3 mps 741 mmHg 79%
    18:00 +5°C° 0 mm 3 mps 742 mmHg 81%
    19:00 +5°C° 0 mm 3 mps 742 mmHg 83%
    20:00 +5°C° 0 mm 2 mps 742 mmHg 86%
    21:00 +4°C° 0 mm 3 mps 742 mmHg 87%
    22:00 +4°C° 0 mm 3 mps 742 mmHg 88%
    23:00 +4°C° 0 mm 3 mps 742 mmHg 89%

    27 October, Saturday

    Time Temperature Precipitation Wind Pressure Humidity
    00:00 +4°C° 0.1 mm 4 mps 741 mmHg 87%
    01:00 +5°C° 0.1 mm 4 mps 741 mmHg 85%
    02:00 +6°C° 0.1 mm 5 mps 740 mmHg 83%
    03:00 +6°C° 0 mm 5 mps 740 mmHg 84%
    04:00 +6°C° 0 mm 5 mps 739 mmHg 84%
    05:00 +7°C° 0 mm 5 mps 739 mmHg 84%
    06:00 +7°C° 0 mm 6 mps 739 mmHg 84%
    07:00 +7°C° 0 mm 6 mps 739 mmHg 83%
    08:00 +8°C° 0 mm 6 mps 738 mmHg 83%
    09:00 +8°C° 0 mm 6 mps 739 mmHg 76%
    10:00 +9°C° 0 mm 7 mps 739 mmHg 70%
    11:00 +10°C° 0 mm 7 mps 739 mmHg 63%
    12:00 +10°C° 0 mm 7 mps 739 mmHg 58%
    13:00 +10°C° 0 mm 7 mps 740 mmHg 53%
    14:00 +10°C° 0 mm 7 mps 740 mmHg 47%
    15:00 +9°C° 0 mm 6 mps 740 mmHg 50%
    16:00 +8°C° 0 mm 5 mps 741 mmHg 52%
    17:00 +7°C° 0 mm 4 mps 741 mmHg 54%
    18:00 +7°C° 0 mm 4 mps 742 mmHg 57%
    19:00 +6°C° 0 mm 4 mps 742 mmHg 60%
    20:00 +6°C° 0 mm 4 mps 743 mmHg 63%
    21:00 +5°C° 0 mm 4 mps 743 mmHg 64%
    22:00 +5°C° 0 mm 3 mps 744 mmHg 65%
    23:00 +5°C° 0 mm 3 mps 744 mmHg 66%

    28 October, Sunday

    Time Temperature Precipitation Wind Pressure Humidity
    00:00 +5°C° 0 mm 3 mps 745 mmHg 67%
    01:00 +5°C° 0 mm 2 mps 745 mmHg 69%
    02:00 +5°C° 0 mm 2 mps 746 mmHg 70%
    03:00 +5°C° 0 mm 2 mps 746 mmHg 71%
    04:00 +6°C° 0 mm 1 mps 747 mmHg 73%
    05:00 +6°C° 0 mm 1 mps 747 mmHg 74%
    06:00 +6°C° 0.1 mm 1 mps 747 mmHg 75%
    07:00 +6°C° 0.1 mm 1 mps 748 mmHg 76%
    08:00 +5°C° 0.1 mm 0 mps 748 mmHg 77%
    09:00 +5°C° 0.2 mm 0 mps 749 mmHg 78%
    10:00 +6°C° 0.2 mm 1 mps 749 mmHg 78%
    11:00 +7°C° 0.2 mm 1 mps 749 mmHg 79%
    12:00 +7°C° 0.1 mm 1 mps 749 mmHg 80%
    13:00 +6°C° 0.1 mm 2 mps 749 mmHg 80%
    14:00 +5°C° 0.1 mm 3 mps 749 mmHg 81%
    15:00 +5°C° 0.4 mm 3 mps 749 mmHg 82%
    16:00 +5°C° 0.4 mm 3 mps 748 mmHg 83%
    17:00 +4°C° 0.4 mm 4 mps 748 mmHg 84%
    18:00 +4°C° 1 mm 4 mps 748 mmHg 84%
    19:00 +4°C° 1 mm 4 mps 748 mmHg 85%
    20:00 +3°C° 1 mm 5 mps 748 mmHg 86%
    21:00 +3°C° 1.2 mm 5 mps 747 mmHg 86%
    22:00 +3°C° 1.2 mm 5 mps 747 mmHg 87%
    23:00 +4°C° 1.2 mm 4 mps 747 mmHg 87%

    29 October, Monday

    Time Temperature Precipitation Wind Pressure Humidity
    00:00 +4°C° 0.3 mm 4 mps 746 mmHg 87%
    01:00 +4°C° 0.3 mm 4 mps 746 mmHg 87%
    02:00 +4°C° 0.3 mm 4 mps 746 mmHg 87%
    03:00 +4°C° 0 mm 4 mps 745 mmHg 88%
    04:00 +4°C° 0 mm 4 mps 745 mmHg 89%
    05:00 +4°C° 0 mm 3 mps 745 mmHg 90%
    06:00 +4°C° 0 mm 3 mps 745 mmHg 91%
    07:00 +5°C° 0 mm 3 mps 745 mmHg 91%
    08:00 +5°C° 0 mm 3 mps 744 mmHg 92%
    09:00 +8°C° 0 mm 3 mps 744 mmHg 90%
    10:00 +9°C° 0 mm 3 mps 744 mmHg 88%
    11:00 +11°C° 0 mm 3 mps 744 mmHg 86%
    12:00 +12°C° 0 mm 3 mps 744 mmHg 86%
    13:00 +13°C° 0 mm 4 mps 743 mmHg 86%
    14:00 +14°C° 0 mm 4 mps 743 mmHg 86%
    15:00 +13°C° 0 mm 3 mps 743 mmHg 88%
    16:00 +13°C° 0 mm 3 mps 742 mmHg 90%
    17:00 +13°C° 0 mm 3 mps 742 mmHg 92%
    18:00 +12°C° 0 mm 3 mps 742 mmHg 91%
    19:00 +12°C° 0 mm 3 mps 742 mmHg 90%
    20:00 +11°C° 0 mm 3 mps 742 mmHg 89%
    21:00 +11°C° 0 mm 3 mps 742 mmHg 86%
    22:00 +11°C° 0 mm 3 mps 742 mmHg 84%
    23:00 +11°C° 0 mm 3 mps 742 mmHg 81%
    Show more